הכול
Prairie Creek Airport (Leesville, LA) 57LS מזג אוויר
There is no TAF data available at 57LS or any nearby airports.
There is no METAR data available at 57LS. Showing METAR data for KDRI (26 mi דר').
Recent DRI METAR history (no data for 57LS)
| Date | Time (CDT) | Flight Rules | Wind Dir. | Speed | Type | Height AGL (ft) | Visibility | Temp (°C) | Temp (°F) | Dew Point (°C) | Dew Point (°F) | Rel. Humid. | Pressure | Density Altitude | Remarks |
|---|---|---|---|---|---|---|---|---|---|---|---|---|---|---|---|
| 07-מאי | 13:35 | VFR | Variable | 3 kt | 10 miles | 22° | 71° | 16° | 60° | 71% | 30.00 in Hg | 961 ft | |||
| 07-מאי | 13:15 | VFR | 80° | 7 kt | 10 miles | 22° | 71° | 17° | 62° | 73% | 30.00 in Hg | 961 ft | |||
| 07-מאי | 12:55 | VFR | 30° | 6 kt | 10 miles | 21° | 69° | 17° | 62° | 80% | 30.00 in Hg | 841 ft | |||
| 07-מאי | 12:35 | VFR | 360° | 7 kt | 10 miles | 20° | 68° | 17° | 62° | 81% | 30.01 in Hg | 711 ft | |||
| 07-מאי | 12:15 | VFR | 40° | 8 kt | 10 miles | 19° | 66° | 16° | 60° | 84% | 30.01 in Hg | 591 ft | |||
| 07-מאי | 11:55 | VFR | Variable | 6 kt | 10 miles | 18° | 64° | 16° | 60° | 88% | 30.03 in Hg | 451 ft | |||
| 07-מאי | 11:35 | VFR | 20° | 9 kt | 10 miles | 17° | 62° | 16° | 60° | 93% | 30.03 in Hg | 331 ft | |||
| 07-מאי | 11:15 | VFR | 20° | 9 kt | 10 miles | 17° | 62° | 16° | 60° | 95% | 30.03 in Hg | 331 ft | |||
| 07-מאי | 10:55 | VFR | 10° | 7 kt | 10 miles | 16° | 60° | 16° | 60° | 96% | 30.02 in Hg | 221 ft | |||
| 07-מאי | 10:35 | VFR | 350° | 8 kt | 10 miles | 16° | 60° | 16° | 60° | 99% | 30.04 in Hg | 201 ft | |||
| 07-מאי | 10:15 | VFR | 340° | 11 kt | 10 miles | 15° | 59° | 15° | 59° | 100% | 30.04 in Hg | 81 ft | |||
| 07-מאי | 09:55 | VFR | 10° | 7 kt | 10 miles | 15° | 59° | 15° | 59° | 100% | 30.04 in Hg | 81 ft | |||
| 07-מאי | 09:35 | VFR | 10° | 5 kt | 10 miles | 16° | 60° | 16° | 60° | 100% | 30.03 in Hg | 211 ft | |||
| 07-מאי | 09:15 | VFR | 350° | 8 kt | 10 miles | 15° | 59° | 15° | 59° | 100% | 30.03 in Hg | 91 ft | |||
| 07-מאי | 08:55 | VFR | 10° | 9 kt | 10 miles | 15° | 59° | 15° | 59° | 100% | 30.02 in Hg | 101 ft | |||
| 07-מאי | 08:35 | VFR | Variable | 5 kt | 10 miles | 15° | 59° | 15° | 59° | 100% | 30.02 in Hg | 101 ft | |||
| 07-מאי | 08:15 | VFR | 50° | 5 kt | 10 miles | 15° | 59° | 15° | 59° | 100% | 30.01 in Hg | 111 ft | |||
| 07-מאי | 07:55 | VFR | 30° | 5 kt | 10 miles | 14° | 57° | 14° | 57° | 100% | 30.01 in Hg | -9 ft | |||
| 07-מאי | 07:35 | VFR | 20° | 9 kt | 10 miles | 14° | 57° | 14° | 57° | 100% | 30.01 in Hg | -9 ft | |||
| 07-מאי | 07:15 | VFR | 10° | 6 kt | 10 miles | 14° | 57° | 14° | 57° | 100% | 30.00 in Hg | 1 ft | |||
| 07-מאי | 06:55 | VFR | 10° | 5 kt | 10 miles | 14° | 57° | 14° | 57° | 100% | 29.99 in Hg | 11 ft | |||
| 07-מאי | 06:35 | VFR | 30° | 4 kt | 10 miles | 14° | 57° | 14° | 57° | 100% | 29.97 in Hg | 31 ft | |||
| 07-מאי | 06:15 | VFR | 50° | 6 kt | 10 miles | 14° | 57° | 14° | 57° | 100% | 29.96 in Hg | 41 ft | |||
| 07-מאי | 05:55 | VFR | 40° | 6 kt | 10 miles | 14° | 57° | 14° | 57° | 100% | 29.96 in Hg | 41 ft |
כניסה לאתר
| אין תמיכה בדפדפן שלך. שדרג את הדפדפן שלך |
